User: anonymous   Login
Location: Fort Wayne
(41.1310°N, 85.1290°W)
Time: 04:53:17
(UTC-05:00)
Language:

BREEZE-M DEB (TANK) - Orbit

View from above orbital plane
View from above orbital plane
View from above satellite
View from above satellite

Ground track
Ground track

The orbit data is extracted from the following two-line orbital elements,

1 27821U 03024B   17058.05653261  .00004027  00000-0  38084-3 0  9997
2 27821  49.6172  13.5998 4947104 305.6445  17.7377  5.75113871274106
Epoch (UTC): 27 February 2017 01:21:24
Eccentricity: 0.4947104
inclination: 49.6172°
perigee height: 271 km
apogee height: 13291 km
right ascension of ascending node: 13.5998°
argument of perigee: 305.6445°
revolutions per day: 5.75113871
mean anomaly at epoch: 17.7377°
orbit number at epoch: 27410

The dashed part of the orbit path shows where the satellite is in the earth's shadow,  

DLR